Weather History for Rocky Mount, NC

Change the Weather History Date:

Friday, January 4, 2013

  Actual Average Record
Temperature  
Mean Temperature 37 °F -  
Max Temperature 48 °F 51 °F 77 °F (2000)
Min Temperature 26 °F 32 °F 15 °F (1979)
Degree Days  
Heating Degree Days 28    
Moisture  
Dew Point 25 °F    
Average Humidity 70    
Maximum Humidity 93    
Minimum Humidity 35    
Precipitation  
Precipitation 0.00 in - - ()
Sea Level Pressure  
Sea Level Pressure 30.26 in    
Wind  
Wind Speed 2 mph (WNW)    
Max Wind Speed 12 mph    
Max Gust Speed 16 mph    
Visibility 7 miles    
Events      
Averages and records for this station are not official NWS values.
T = Trace of Precipitation, MM = Missing Value Source: NWS Daily Summary

Daily Weather History Graph

Daily Weather History Graph

Search for Another Location

Airport:

Trip Planner

Search our weather history database for the weather conditions in past years. The results will help you decide how hot, cold, wet, or windy it might be!

Date:

Astronomy

Jan. 04, 2013 Rise Set
Actual Time 7:22 AM EST 5:11 PM EST
Civil Twilight 6:53 AM EST 5:39 PM EST
Nautical Twilight 6:22 AM EST 6:11 PM EST
Astronomical Twilight 5:51 AM EST 6:42 PM EST
Moon No Moon Rise 11:18 AM EST (1/4)
Length of Visible Light 10h 45m
Length of Day
9h 49m
Waning Gibbous, 55% of the Moon is Illuminated
Jan 4
Waning Gibbous
Jan 4
Last Quarter
Jan 11
New
Jan 18
First Quarter
Jan 26
Full

Hourly Weather History & Observations

Time (EST) Temp. Windchill Dew Point Humidity Pressure Visibility Wind Dir Wind Speed Gust Speed Precip Events Conditions
12:00 AM 28.4 °F - 26.6 °F 93% 30.25 in 2.0 mi Calm Calm - N/A   Clear
12:12 AM 28.4 °F - 26.6 °F 93% 30.25 in 1.5 mi Calm Calm - N/A   Clear
12:31 AM 28.4 °F - 26.6 °F 93% 30.25 in 2.5 mi Calm Calm - N/A   Clear
12:53 AM 28.9 °F - 26.1 °F 89% 30.25 in 2.0 mi Calm Calm - N/A   Clear
1:04 AM 28.4 °F - 26.6 °F 93% 30.25 in 1.5 mi Calm Calm - N/A   Clear
1:20 AM 26.6 °F 22.6 °F 24.8 °F 93% 30.25 in 2.5 mi SSW 3.5 mph - N/A   Clear
1:29 AM 26.6 °F - 24.8 °F 93% 30.25 in 1.5 mi Calm Calm - N/A   Clear
1:53 AM 28.9 °F - 27.0 °F 92% 30.26 in 1.5 mi Calm Calm - N/A   Clear
2:03 AM 30.2 °F - 28.4 °F 93% 30.25 in 3.0 mi Calm Calm - N/A   Clear
2:19 AM 30.2 °F - 28.4 °F 93% 30.25 in 2.5 mi Calm Calm - N/A   Clear
2:37 AM 30.2 °F - 28.4 °F 93% 30.26 in 3.0 mi Calm Calm - N/A   Clear
2:53 AM 30.0 °F - 28.0 °F 92% 30.27 in 4.0 mi Calm Calm - N/A   Clear
3:53 AM 32.0 °F 28.7 °F 28.0 °F 85% 30.27 in 9.0 mi West 3.5 mph - N/A   Clear
4:53 AM 30.0 °F - 25.0 °F 82% 30.26 in 10.0 mi Calm Calm - N/A   Clear
5:53 AM 28.0 °F - 24.1 °F 85% 30.27 in 10.0 mi Calm Calm - N/A   Clear
6:53 AM 32.0 °F - 24.1 °F 73% 30.28 in 10.0 mi Calm Calm - N/A   Clear
7:53 AM 28.0 °F - 23.0 °F 81% 30.30 in 10.0 mi Calm Calm - N/A   Clear
8:53 AM 36.0 °F 30.3 °F 26.1 °F 67% 30.30 in 10.0 mi WNW 6.9 mph - N/A   Clear
9:53 AM 39.0 °F 33.4 °F 25.0 °F 57% 30.32 in 10.0 mi WNW 8.1 mph - N/A   Clear
10:53 AM 43.0 °F 37.2 °F 24.1 °F 47% 30.31 in 10.0 mi NW 10.4 mph - N/A   Clear
11:53 AM 46.0 °F 41.4 °F 24.1 °F 42% 30.28 in 10.0 mi WNW 9.2 mph - N/A   Clear
12:53 PM 46.9 °F - 24.1 °F 41% 30.23 in 10.0 mi West 6.9 mph - N/A   Clear
1:53 PM 48.9 °F - 25.0 °F 39% 30.21 in 10.0 mi West 6.9 mph - N/A   Clear
2:53 PM 48.9 °F - 21.9 °F 35% 30.20 in 10.0 mi West 11.5 mph - N/A   Clear
3:53 PM 48.9 °F - 23.0 °F 36% 30.20 in 10.0 mi West 5.8 mph - N/A   Clear
4:53 PM 48.0 °F - 23.0 °F 37% 30.20 in 10.0 mi WNW 4.6 mph - N/A   Clear
5:53 PM 41.0 °F - 25.0 °F 53% 30.21 in 10.0 mi Calm Calm - N/A   Partly Cloudy
6:53 PM 39.9 °F - 33.1 °F 77% 30.22 in 10.0 mi Calm Calm - N/A   Overcast
8:53 PM 43.0 °F 39.5 °F 25.0 °F 49% 30.26 in 10.0 mi West 5.8 mph - N/A   Scattered Clouds
9:53 PM 42.1 °F 37.1 °F 19.9 °F 41% 30.27 in 10.0 mi WNW 8.1 mph 16.1 mph N/A   Clear
10:53 PM 39.9 °F 33.4 °F 19.0 °F 43% 30.28 in 10.0 mi WNW 10.4 mph - N/A   Clear
11:53 PM 37.9 °F 31.5 °F 19.0 °F 47% 30.28 in 10.0 mi WNW 9.2 mph - N/A   Clear